Theta_e
316 316 316 316 316 315 316 315 315 316 316 316 316 316 316 316 316 316 316 316 317 317 317 318 319 317 314 303 303 316 333 331 329 331 325 320 320 317 311 317 321 324 325 328 331 331 329
315 316 316 316 315 315 315 315 315 315 315 315 316 316 316 316 316 317 316 316 316 316 318 320 319 318 310 297 311 318 327 325 327 331 322 322 318 318 313 316 315 319 320 325 325 326 327
315 316 316 316 315 315 315 315 315 315 315 315 316 316 315 316 316 316 315 315 315 317 320 322 319 315 307 303 316 319 320 324 328 324 320 320 323 316 314 308 316 316 312 313 314 317 322
315 316 316 315 315 315 315 315 315 315 315 315 315 315 315 315 315 315 314 314 316 319 321 320 322 316 305 316 320 318 316 322 324 325 318 316 317 315 309 311 307 305 306 302 311 315 322
315 315 315 315 315 315 315 315 315 315 315 315 315 315 314 314 314 314 313 315 320 321 321 322 317 312 299 316 306 307 313 309 321 321 317 316 314 309 307 304 303 304 298 300 304 317 322
315 315 315 315 315 315 315 315 315 315 315 314 314 314 314 314 313 312 312 316 324 322 321 320 316 304 304 300 304 306 308 319 315 313 309 308 309 303 303 302 294 298 298 303 302 313 320
315 315 315 315 315 315 315 315 315 315 314 314 314 313 313 313 312 311 310 305 302 301 302 297 297 297 300 304 305 304 307 315 313 308 300 305 299 297 300 302 302 302 302 301 308 312 316
315 315 315 315 315 315 315 315 314 314 314 314 313 313 313 312 311 311 306 303 302 302 296 299 298 298 301 302 299 302 309 309 308 303 303 299 296 301 302 301 300 301 301 302 307 312 317
315 315 315 315 315 315 314 314 314 313 313 313 313 313 312 311 310 307 304 303 307 302 295 296 299 299 299 301 297 298 303 302 305 303 302 300 301 303 300 299 298 299 298 300 303 306 313
315 315 315 315 315 315 314 314 313 313 313 313 313 312 311 309 305 303 302 305 306 303 292 292 295 298 301 299 296 302 307 301 300 302 303 303 307 301 300 298 299 296 302 301 301 302 300
315 315 315 315 314 314 314 313 313 313 313 313 313 311 310 308 305 303 305 307 302 298 283 294 295 303 300 296 297 298 308 303 298 298 300 301 302 301 299 299 301 298 302 300 301 300 301
315 315 314 314 314 314 313 313 313 313 313 312 312 310 309 307 304 306 307 304 300 290 282 290 294 293 294 295 296 298 302 305 304 300 301 300 304 305 305 304 302 303 302 301 300 298 292
314 314 314 314 314 314 313 313 313 313 312 312 310 308 307 308 302 308 306 301 290 284 292 288 289 292 291 291 292 294 296 296 295 292 293 297 299 303 305 303 304 301 298 292 291 291 289
314 314 315 314 314 313 313 313 313 312 312 310 308 305 304 308 308 305 302 296 284 288 288 291 291 291 288 290 290 291 293 292 296 295 294 292 291 299 301 302 300 301 300 293 288 290 292
315 315 314 314 314 313 313 313 312 312 311 309 306 302 305 306 306 304 301 288 287 289 291 289 290 287 287 289 290 289 291 292 294 294 291 292 292 298 300 301 302 301 297 303 296 297 295
315 315 314 314 313 313 313 313 312 312 311 309 302 299 302 306 302 302 296 288 289 293 294 291 286 289 285 287 287 288 287 294 293 295 297 292 284 293 298 301 303 302 306 297 298 290 289
313 314 314 313 313 313 314 313 312 311 309 308 300 299 304 305 304 299 291 289 291 296 296 291 289 287 288 287 288 287 287 293 296 294 296 294 289 288 293 295 298 299 298 301 302 299 293
313 314 314 313 313 313 314 313 311 310 308 305 298 293 304 303 296 293 290 290 293 293 297 294 292 291 288 289 287 287 287 291 297 297 291 295 291 285 287 294 299 298 297 300 296 296 300
313 314 313 313 313 313 313 312 311 309 308 304 294 295 304 304 290 289 290 290 292 292 293 293 291 291 291 288 285 288 290 296 297 296 293 296 289 283 286 293 297 294 297 298 298 300 298
312 313 313 313 313 313 312 312 310 309 308 304 296 292 297 297 295 292 288 288 289 294 293 295 293 294 291 289 291 287 289 295 297 297 300 298 290 286 282 286 289 289 292 295 293 294 297
312 312 313 313 312 312 312 312 311 310 307 303 296 292 294 290 292 291 291 290 287 288 294 294 292 291 289 287 287 286 289 292 294 297 298 295 286 288 289 289 289 288 289 291 291 294 294
312 312 312 312 312 312 312 313 312 310 305 302 296 295 296 293 293 291 290 289 288 290 290 289 288 290 290 286 288 286 288 289 290 295 294 294 286 288 286 289 290 287 290 292 293 294 295
312 312 312 311 312 312 312 312 312 310 309 302 300 301 296 293 292 290 289 290 290 293 292 293 292 290 288 290 294 295 295 295 294 292 292 290 287 286 282 288 289 286 291 293 295 299 298
312 312 311 312 312 312 312 312 312 312 310 307 304 301 294 289 291 291 292 293 291 291 290 292 294 290 295 300 298 297 295 294 294 294 295 288 286 287 283 285 277 292 302 300 298 299 300
311 311 311 312 311 311 312 312 312 312 311 308 307 302 295 289 292 293 293 291 292 292 291 291 294 298 300 295 290 286 287 288 290 292 292 294 289 285 281 281 288 296 298 299 299 296 300
311 310 311 311 311 311 312 313 313 313 312 310 309 308 299 293 292 295 293 293 289 289 290 292 298 300 297 292 287 282 280 284 283 286 293 292 293 287 284 280 283 293 299 302 303 295 300
310 310 311 311 311 312 312 313 313 313 312 311 309 310 300 294 299 297 293 292 295 292 289 292 294 293 296 289 285 283 282 285 281 282 282 284 285 283 283 281 286 294 297 302 292 294 301
310 310 310 310 311 312 312 312 313 313 313 311 307 309 303 299 300 300 300 296 296 294 289 293 293 292 290 286 286 285 284 286 285 287 285 284 283 282 284 280 280 293 296 295 299 301 301
309 310 310 310 311 312 312 313 313 313 314 310 305 310 309 301 300 304 304 305 303 301 295 295 292 292 292 287 288 288 285 287 286 283 289 285 287 287 288 288 295 295 297 304 305 302 302
Wind_Speed
17 18 18 19 19 20 20 21 21 21 22 23 24 24 24 25 27 26 24 20 18 17 14 12 6 4 2 2 4 10 10 12 17 19 21 17 19 12 12 10 8 15 6 6 11 10 6
18 18 18 19 19 20 21 21 22 22 23 24 24 24 24 24 25 26 24 21 17 16 12 8 5 5 2 1 1 8 4 7 13 16 19 15 15 10 12 7 12 7 17 8 6 7 7
17 17 17 18 19 20 20 21 22 23 23 24 24 25 26 26 25 27 25 22 18 13 7 7 10 4 1 1 3 8 3 4 7 7 19 7 9 14 7 6 8 12 3 6 10 11 6
16 16 17 18 19 20 21 21 22 22 22 23 24 24 26 27 27 26 24 22 14 2 7 10 10 2 1 3 4 6 4 2 6 8 5 4 5 6 3 2 3 7 6 9 3 14 6
16 16 17 17 18 19 19 21 22 22 22 23 24 25 27 27 27 25 25 17 4 9 9 8 1 2 5 4 5 5 3 2 8 10 1 8 4 4 5 4 6 5 8 17 7 12 6
15 16 17 18 19 19 20 21 22 23 22 22 23 25 26 26 27 23 22 2 9 7 4 5 3 3 4 7 7 8 1 10 5 14 9 7 9 8 8 12 13 10 13 7 16 10 14
15 17 17 19 19 18 19 20 21 23 25 25 25 26 27 27 26 24 9 3 4 1 5 4 4 0 6 10 5 13 4 7 12 11 11 8 13 22 22 16 13 6 8 11 6 9 14
15 16 17 18 19 19 20 22 23 24 25 25 25 25 26 26 22 19 4 6 5 4 6 2 6 5 6 3 4 17 8 3 7 10 10 6 19 19 12 12 14 15 8 11 9 7 8
17 17 18 18 19 19 20 21 22 22 24 25 26 27 29 28 20 3 4 7 5 3 4 3 2 4 4 2 4 12 10 1 6 10 17 15 4 14 14 16 15 19 21 12 7 3 11
17 17 17 18 18 19 20 21 22 23 25 25 26 28 28 30 1 3 2 4 8 6 1 3 1 5 7 5 3 7 9 3 4 10 12 14 18 9 16 22 19 20 17 16 15 8 11
15 15 16 18 19 19 20 21 22 22 24 26 26 27 24 11 4 2 8 10 3 4 4 4 3 3 7 5 7 8 8 3 2 3 4 8 10 18 15 15 18 16 9 18 18 14 11
17 16 17 18 19 20 20 21 22 23 24 26 26 26 22 2 2 4 8 5 3 3 4 3 3 3 2 6 4 7 7 5 2 3 3 7 6 8 18 13 18 9 5 11 12 14 19
15 16 17 19 19 20 20 21 23 23 24 25 26 25 10 2 6 13 8 1 2 5 2 2 2 2 2 5 4 7 5 8 4 4 3 1 6 6 7 11 18 17 14 7 7 10 17
15 15 16 16 17 19 20 21 21 23 24 25 26 13 1 3 9 8 2 1 6 1 2 3 2 2 1 3 2 5 2 2 6 2 2 4 9 3 5 10 9 22 20 9 13 9 12
15 15 15 15 15 17 20 20 21 22 24 27 16 4 1 7 9 3 1 3 2 1 2 2 1 3 3 1 4 3 1 1 2 5 3 2 5 2 1 4 4 14 24 22 11 2 10
15 15 16 16 17 18 18 20 21 22 23 23 5 3 5 16 5 0 2 1 0 3 5 2 4 4 6 5 3 2 3 4 4 1 4 1 6 2 3 5 13 11 11 19 13 17 14
15 16 16 16 16 17 18 18 20 21 21 16 2 1 10 16 2 4 3 4 3 4 7 3 4 5 5 4 5 4 2 5 5 4 2 1 4 2 5 5 7 8 11 10 14 17 11
14 14 14 15 15 16 17 17 18 18 20 7 4 2 11 10 6 3 3 8 6 5 4 5 4 9 7 6 6 7 8 6 9 8 3 2 3 6 8 12 7 9 7 13 14 19 18
15 15 15 15 16 16 16 16 15 15 12 4 3 3 5 6 5 4 5 5 3 5 6 5 5 3 1 4 5 9 5 2 10 7 6 6 3 5 6 6 6 4 2 6 11 13 18
14 16 17 15 16 16 15 13 12 12 8 2 2 3 4 5 2 4 6 5 9 8 5 6 8 8 7 12 10 4 6 5 4 3 8 6 4 9 9 11 11 10 11 12 8 13 17
15 17 17 17 18 16 15 13 11 10 6 1 3 3 3 5 5 6 1 2 9 5 3 6 4 4 4 7 10 10 8 3 4 5 6 5 7 8 13 16 14 18 22 20 16 15 12
14 16 17 17 17 15 14 12 10 7 4 3 3 2 1 3 5 5 2 1 5 5 4 5 6 8 7 4 4 3 6 10 10 6 7 5 4 7 15 14 16 23 23 22 21 22 16
15 16 17 17 16 15 13 11 9 5 3 2 1 1 1 2 3 3 3 3 8 13 3 7 10 5 7 7 9 10 10 13 10 5 10 7 4 5 11 10 18 15 25 24 19 12 19
16 17 18 16 15 13 12 11 9 4 2 1 1 1 0 2 1 3 6 11 7 10 6 7 8 3 4 10 13 14 18 20 18 16 12 9 6 2 9 8 11 12 6 22 19 5 6
16 16 16 15 14 12 11 10 8 3 4 1 1 1 1 1 3 4 9 8 9 8 7 8 7 7 12 5 6 6 5 7 13 20 20 15 9 5 6 6 16 12 4 12 17 5 4
17 16 15 14 13 12 11 9 7 3 4 2 1 1 1 1 1 3 5 5 5 5 6 3 7 5 3 3 4 6 5 4 6 5 16 15 15 9 6 7 9 4 13 11 4 5 7
17 15 13 12 12 11 10 8 5 2 5 2 1 2 2 0 1 3 3 2 3 2 3 7 10 3 3 2 3 3 3 4 6 10 7 8 8 14 12 8 13 7 22 13 7 7 6
17 14 12 12 12 10 8 6 4 1 7 3 1 2 1 1 4 2 2 3 3 2 3 7 4 1 2 3 3 3 3 2 2 4 8 8 8 7 8 11 13 11 15 4 6 3 6
17 13 11 11 12 10 7 5 3 3 9 4 1 1 1 2 3 2 5 9 6 3 2 2 2 3 2 3 3 4 3 5 8 3 1 4 4 1 4 2 5 12 10 7 6 4 7
Wind_Direction
20 17 15 12 9 5 2 359 357 355 353 349 343 341 338 335 333 331 331 331 324 315 311 296 288 252 266 234 266 343 7 137 157 170 169 172 174 176 186 201 188 224 248 268 251 284 297
17 14 12 9 7 2 358 355 353 350 349 347 340 339 337 334 332 329 331 329 324 318 311 269 198 163 238 246 302 352 30 147 167 172 171 172 186 181 190 198 213 223 227 247 293 278 270
15 11 8 4 1 358 354 352 350 348 346 345 341 338 335 334 334 330 332 326 322 319 316 154 159 169 184 24 342 336 269 183 190 172 174 165 170 189 153 188 216 228 286 233 246 252 232
10 7 4 0 357 354 349 348 346 344 343 342 340 338 334 335 335 333 331 324 321 37 113 144 165 278 274 232 301 304 172 153 188 198 181 170 139 196 234 290 165 209 222 247 183 211 210
4 2 359 355 353 349 345 343 342 342 343 342 340 339 335 337 334 335 332 331 97 109 127 158 165 316 29 322 345 339 238 167 147 184 253 194 200 211 200 204 197 179 208 218 244 200 187
359 357 354 351 350 347 344 343 342 341 341 341 340 337 333 336 331 334 333 288 115 114 137 206 227 208 13 331 327 330 310 152 133 158 189 161 189 209 207 205 206 194 216 210 217 191 215
355 353 350 348 346 345 343 340 342 341 340 342 340 337 333 333 330 329 341 267 336 34 46 358 336 245 309 326 269 18 9 138 112 154 180 180 196 209 207 212 229 259 236 242 217 216 202
350 349 347 344 344 344 344 341 342 340 336 337 337 334 332 332 328 324 295 74 76 323 313 307 264 259 260 311 337 8 14 196 158 176 167 179 222 222 225 213 216 231 247 233 249 234 220
345 344 343 340 340 341 340 339 338 337 334 336 338 339 339 336 325 30 29 87 32 195 246 301 286 332 10 307 44 6 0 304 205 184 195 211 248 198 201 204 213 224 234 229 248 335 226
339 336 335 336 338 338 338 338 337 338 335 338 341 340 341 329 121 356 55 355 321 192 286 135 110 34 340 337 110 0 12 302 192 221 190 227 234 207 208 213 210 229 226 244 252 275 226
333 332 334 334 335 336 337 336 336 337 336 337 340 337 339 356 329 45 332 324 142 213 276 59 67 0 355 50 334 13 25 338 232 164 226 195 203 207 218 217 206 233 222 225 237 249 272
331 332 334 335 334 334 336 335 335 337 336 334 335 330 332 227 244 313 326 306 211 220 224 120 62 21 28 25 23 323 360 26 348 274 189 252 307 226 224 212 205 210 162 214 233 239 245
330 330 332 333 332 333 334 334 334 333 334 331 331 323 313 273 337 329 319 203 216 226 79 111 60 19 57 17 25 14 25 37 8 229 214 311 220 222 211 200 200 205 209 206 209 209 239
328 327 330 330 331 330 331 333 332 332 333 331 330 332 293 242 319 316 289 222 228 77 54 38 35 79 265 3 44 10 40 21 53 350 53 243 200 207 29 230 216 207 209 206 211 218 232
326 328 329 330 332 331 330 331 333 333 334 331 329 348 294 340 321 255 173 231 339 130 341 315 250 224 184 294 313 316 107 204 351 359 313 263 245 344 236 323 239 200 214 218 262 236 255
324 326 334 334 334 332 331 331 333 335 334 336 340 322 3 341 340 167 158 98 0 28 352 278 247 219 209 191 240 254 226 162 162 310 327 106 285 41 321 291 230 243 208 207 222 241 234
331 331 332 335 336 332 331 334 335 335 337 340 7 72 353 344 266 48 58 22 325 339 339 276 265 261 241 227 227 207 222 153 177 144 75 176 277 275 296 199 240 191 218 218 234 233 237
328 332 333 332 337 335 333 339 338 342 343 10 347 74 343 330 49 33 36 340 334 327 2 293 277 264 245 211 221 225 241 239 168 162 185 120 270 275 271 274 288 302 288 269 227 223 231
329 336 333 336 336 337 339 341 341 350 10 340 17 311 332 352 64 38 352 342 301 316 333 319 305 345 1 233 242 236 241 169 163 169 166 166 195 279 249 189 140 225 231 263 277 272 244
332 336 334 338 336 339 340 336 345 347 9 52 338 9 39 52 39 36 17 3 350 325 317 342 291 288 255 241 227 277 243 181 168 176 132 161 194 263 278 325 327 284 296 301 300 248 228
337 334 336 338 340 339 336 335 343 344 18 49 5 60 28 9 43 2 200 295 331 323 321 331 281 291 316 244 219 216 238 172 181 201 167 196 235 225 268 284 293 278 273 268 262 262 256
337 335 337 337 338 334 334 336 339 349 33 64 27 5 58 344 339 326 29 106 292 307 242 298 250 317 288 235 230 222 192 223 219 176 179 172 231 232 273 283 288 270 259 254 251 255 252
338 337 337 338 336 333 337 336 339 3 24 57 67 57 140 303 338 319 3 298 296 328 260 277 298 310 270 261 252 241 253 268 264 222 195 194 230 265 267 323 325 263 244 239 239 239 222
337 339 340 338 336 339 337 333 340 24 171 70 106 109 300 315 310 329 297 304 305 320 302 289 295 227 260 309 292 256 250 247 243 235 208 183 191 261 282 321 276 250 295 213 198 178 251
339 341 340 340 340 338 332 330 339 355 167 154 145 167 147 286 277 311 330 344 332 328 311 297 301 288 311 285 262 263 221 221 224 226 218 215 186 231 257 266 278 225 61 153 169 111 359
340 342 340 344 339 332 333 337 336 354 166 154 188 139 140 313 14 301 310 307 342 335 330 306 326 306 287 282 240 251 220 200 191 175 210 208 211 214 233 272 242 85 344 323 283 173 20
337 343 342 342 333 335 342 339 343 344 153 145 104 160 121 187 275 325 311 338 293 261 277 301 338 305 29 273 261 281 284 147 206 175 159 177 194 214 229 252 271 320 326 291 215 90 17
335 340 348 342 331 337 330 332 338 358 143 126 74 199 210 225 293 241 321 315 279 212 311 326 296 221 293 323 313 320 281 348 271 102 155 170 187 203 220 226 248 349 311 267 34 49 29
335 336 346 338 335 337 341 330 350 142 151 129 138 157 205 247 297 288 267 271 270 305 276 298 274 276 359 318 335 309 325 335 337 63 57 181 249 298 231 222 279 292 279 9 341 358 14